Flag for Austria Weather for the Past 2 Weeks in Spittal an der Drau, Carinthia, Austria

Now
50 °F

Passing clouds.


Feels Like: 50 °F
Forecast: 39 / 62 °F
Wind: 2 mph from North

Location: Klagenfurt-Flughafen

Current Time: May 5, 2016 at 1:12:20 AM

Latest Report: May 5, 2016 at 12:20 AM


Visibility: N/A

Pressure: 30.21 "Hg (28.24 "Hg at 560m altitude)

Humidity: 58%

Dew Point: 36 °F

Location of Spittal an der DrauLocation

Historic Weather in Spittal an der Drau — Graph

°F

Spittal an der Drau Temperature Yesterday

Maximum temperature yesterday: 61 °F (at 10:50 AM)
Minimum temperature yesterday: 43 °F (at 4:50 AM)
Average temperature yesterday: 52 °F

High & Low Weather Summary for the Past Weeks

 TemperatureHumidityPressure
High73 °F (Apr 22, 3:20 PM)100% (Apr 23, 4:50 AM)30.33 "Hg (Apr 23, 4:50 AM)
Low28 °F (Apr 26, 3:20 AM)19% (Apr 25, 4:50 PM)29.59 "Hg (Apr 23, 3:20 PM)
Average48 °F71%29.96 "Hg
* Reported Apr 19 7:20 PM — May 4 7:50 PM, Spittal an der Drau, Weather by CustomWeather, © 2016

Note: Actual official high and low records may vary slightly from our data, if they occured in-between our weather recording intervals... More about our weather records

Advertising

Spittal an der Drau Weather History for the Previous 24 Hours

Scroll right to see more
 ConditionsComfort  
Time TempWeatherWind HumidityBarometerVisibility
7:50 PM
Wed, May 4
55 °FPartly sunny.10 mph41%30.15 "HgN/A
7:20 PM57 °FPartly sunny.10 mph39%30.15 "HgN/A
6:50 PM57 °FPartly sunny.8 mph41%30.15 "HgN/A
6:20 PM57 °FPartly sunny.7 mph44%30.15 "HgN/A
5:50 PM59 °FBroken clouds.9 mph36%30.12 "HgN/A
5:20 PM59 °FBroken clouds.8 mph39%30.12 "HgN/A
4:50 PM59 °FBroken clouds.10 mph39%30.12 "HgN/A
4:20 PM59 °FBroken clouds.13 mph39%30.12 "HgN/A
3:50 PM59 °FPartly sunny.14 mph39%30.12 "HgN/A
3:20 PM59 °FPartly sunny.9 mph42%30.12 "HgN/A
2:50 PM59 °FPartly sunny.10 mph39%30.12 "HgN/A
2:20 PM59 °FPartly sunny.14 mph42%30.12 "HgN/A
12:50 PM61 °FPartly sunny.13 mph36%30.09 "HgN/A
12:20 PM61 °FPartly sunny.7 mph36%30.09 "HgN/A
11:50 AM61 °FPartly sunny.8 mph36%30.09 "HgN/A
11:20 AM61 °FBroken clouds.10 mph34%30.09 "HgN/A
10:50 AM61 °FScattered clouds.6 mph36%30.09 "HgN/A
9:50 AM59 °FScattered clouds.2 mph42%30.09 "HgN/A
9:20 AM55 °FScattered clouds.2 mph59%30.09 "HgN/A
8:50 AM52 °FPartly sunny.1 mph72%30.09 "HgN/A
8:20 AM48 °FPartly sunny.2 mph76%30.09 "HgN/A
7:50 AM46 °FPartly sunny.2 mph82%30.09 "HgN/A
7:20 AM45 °FPartly sunny.2 mph87%30.07 "HgN/A
6:50 AM43 °FPartly sunny.3 mph87%30.07 "HgN/A
6:20 AM43 °FPassing clouds.3 mph87%30.07 "HgN/A
5:50 AM43 °FPassing clouds.5 mph87%30.04 "HgN/A
5:20 AM43 °FPassing clouds.5 mph87%30.04 "HgN/A
4:50 AM43 °FPartly cloudy.5 mph87%30.04 "HgN/A
4:20 AM45 °FOvercast.5 mph81%30.04 "HgN/A
3:50 AM45 °FPassing clouds.5 mph81%30.04 "HgN/A
3:20 AM45 °FPassing clouds.3 mph81%30.01 "HgN/A
2:50 AM45 °FOvercast.5 mph81%30.01 "HgN/A
2:20 AM45 °FOvercast.5 mph81%30.01 "HgN/A
1:50 AM45 °FPassing clouds.6 mph81%30.01 "HgN/A
Weather by CustomWeather, © 2016

See weather overviewHow to use our weather pages